Wetterdaten: Dienstag, 20.08.2013
Datum Zeit Temperatur Luftfeuchte Luftdruck Regen Wind Richtung Richtung Taupunkt Windchill Windben
20.08.2013 00:00 10,9 C 96 % 1025,1 hPa 0,0 l/m 0,6 km/h (0 Bft) O-SO 112 10,3 C 10,9 C 2,1 km/h (1 Bft)
20.08.2013 00:05 10,9 C 96 % 1025,1 hPa 0,0 l/m 0,6 km/h (0 Bft) N-NO 22 10,3 C 10,9 C 0,0 km/h (0 Bft)
20.08.2013 00:10 10,9 C 96 % 1025,1 hPa 0,0 l/m 0,3 km/h (0 Bft) S-SO 157 10,3 C 10,9 C 3,7 km/h (1 Bft)
20.08.2013 00:15 11,0 C 96 % 1025,1 hPa 0,0 l/m 0,8 km/h (0 Bft) S-SW 202 10,4 C 10,9 C 2,7 km/h (1 Bft)
20.08.2013 00:20 11,0 C 96 % 1025,1 hPa 0,0 l/m 1,3 km/h (1 Bft) NO 45 10,4 C 11,0 C 4,0 km/h (1 Bft)
20.08.2013 00:25 11,0 C 96 % 1025,3 hPa 0,0 l/m 1,0 km/h (0 Bft) O 90 10,4 C 11,0 C 0,0 km/h (0 Bft)
20.08.2013 00:30 11,1 C 96 % 1025,3 hPa 0,0 l/m 1,3 km/h (1 Bft) SO 135 10,5 C 11,1 C 4,2 km/h (1 Bft)
20.08.2013 00:35 11,1 C 96 % 1025,3 hPa 0,0 l/m 1,1 km/h (1 Bft) O-SO 112 10,5 C 11,1 C 0,0 km/h (0 Bft)
20.08.2013 00:40 11,2 C 96 % 1025,3 hPa 0,0 l/m 0,6 km/h (0 Bft) S-SO 157 10,6 C 11,2 C 0,0 km/h (0 Bft)
20.08.2013 00:45 11,2 C 96 % 1025,4 hPa 0,0 l/m 0,3 km/h (0 Bft) S-SW 202 10,6 C 11,2 C 0,0 km/h (0 Bft)
20.08.2013 00:50 11,2 C 96 % 1025,4 hPa 0,0 l/m 1,3 km/h (1 Bft) W-SW 247 10,6 C 11,3 C 6,3 km/h (2 Bft)
20.08.2013 00:55 11,2 C 96 % 1025,4 hPa 0,0 l/m 1,9 km/h (1 Bft) S 180 10,6 C 11,3 C 0,0 km/h (0 Bft)
20.08.2013 01:00 11,2 C 96 % 1025,4 hPa 0,7 l/m 1,9 km/h (1 Bft) SO 135 10,6 C 11,2 C 10,5 km/h (2 Bft)
20.08.2013 01:05 11,3 C 96 % 1025,8 hPa 0,7 l/m 2,4 km/h (1 Bft) O 90 10,7 C 11,3 C 1,6 km/h (1 Bft)
20.08.2013 01:10 11,4 C 96 % 1025,8 hPa 0,0 l/m 3,2 km/h (1 Bft) O-SO 112 10,8 C 11,4 C 5,8 km/h (2 Bft)
20.08.2013 01:15 11,4 C 96 % 1025,8 hPa 0,0 l/m 2,6 km/h (1 Bft) SO 135 10,8 C 11,4 C 3,2 km/h (1 Bft)
20.08.2013 01:20 11,3 C 96 % 1025,8 hPa 0,0 l/m 2,3 km/h (1 Bft) O-SO 112 10,7 C 11,4 C 2,3 km/h (1 Bft)
20.08.2013 01:25 11,3 C 96 % 1025,7 hPa 0,0 l/m 1,3 km/h (1 Bft) S-SO 157 10,7 C 11,3 C 0,0 km/h (0 Bft)
20.08.2013 01:30 11,3 C 96 % 1025,7 hPa 0,0 l/m 1,0 km/h (0 Bft) SO 135 10,7 C 11,3 C 1,9 km/h (1 Bft)
20.08.2013 01:35 11,3 C 96 % 1025,7 hPa 0,0 l/m 1,1 km/h (1 Bft) S-SW 202 10,7 C 11,3 C 4,3 km/h (1 Bft)
20.08.2013 01:40 11,3 C 96 % 1025,7 hPa 0,0 l/m 2,3 km/h (1 Bft) S 180 10,7 C 11,2 C 4,5 km/h (1 Bft)
20.08.2013 01:45 11,3 C 96 % 1025,8 hPa 0,0 l/m 2,9 km/h (1 Bft) S 180 10,7 C 11,2 C 3,7 km/h (1 Bft)
20.08.2013 01:50 11,2 C 96 % 1025,8 hPa 0,0 l/m 2,4 km/h (1 Bft) O 90 10,6 C 11,2 C 2,1 km/h (1 Bft)
20.08.2013 01:55 11,2 C 96 % 1025,8 hPa 0,0 l/m 1,9 km/h (1 Bft) O-SO 112 10,6 C 11,2 C 2,7 km/h (1 Bft)
20.08.2013 02:00 11,2 C 96 % 1025,8 hPa 0,0 l/m 1,8 km/h (1 Bft) N-NW 337 10,6 C 11,2 C 3,5 km/h (1 Bft)
20.08.2013 02:05 11,2 C 96 % 1025,7 hPa 0,0 l/m 1,4 km/h (1 Bft) NO 45 10,6 C 11,2 C 5,1 km/h (1 Bft)
20.08.2013 02:10 11,3 C 96 % 1025,7 hPa 0,0 l/m 1,3 km/h (1 Bft) S-SW 202 10,7 C 11,2 C 3,4 km/h (1 Bft)
20.08.2013 02:15 11,3 C 96 % 1025,7 hPa 0,0 l/m 1,8 km/h (1 Bft) S-SW 202 10,7 C 11,3 C 0,0 km/h (0 Bft)
20.08.2013 02:20 11,2 C 96 % 1025,7 hPa 0,0 l/m 1,8 km/h (1 Bft) NO 45 10,6 C 11,3 C 3,9 km/h (1 Bft)
20.08.2013 02:25 11,2 C 96 % 1026,0 hPa 0,0 l/m 1,6 km/h (1 Bft) SO 135 10,6 C 11,2 C 2,3 km/h (1 Bft)
20.08.2013 02:30 11,1 C 96 % 1026,0 hPa 0,0 l/m 1,9 km/h (1 Bft) O-NO 67 10,5 C 11,1 C 0,0 km/h (0 Bft)
20.08.2013 02:35 11,1 C 96 % 1026,0 hPa 0,0 l/m 1,1 km/h (1 Bft) NO 45 10,5 C 11,1 C 1,6 km/h (1 Bft)
20.08.2013 02:40 11,2 C 96 % 1026,0 hPa 0,0 l/m 0,5 km/h (0 Bft) O-NO 67 10,6 C 11,1 C 0,0 km/h (0 Bft)
20.08.2013 02:45 11,2 C 96 % 1025,8 hPa 0,0 l/m 1,4 km/h (1 Bft) O 90 10,6 C 11,1 C 3,9 km/h (1 Bft)
20.08.2013 02:50 11,2 C 96 % 1025,8 hPa 0,0 l/m 3,2 km/h (1 Bft) O-SO 112 10,6 C 11,1 C 3,2 km/h (1 Bft)
20.08.2013 02:55 11,1 C 96 % 1025,8 hPa 0,0 l/m 2,9 km/h (1 Bft) S-SO 157 10,5 C 11,1 C 0,0 km/h (0 Bft)
20.08.2013 03:00 10,9 C 96 % 1025,8 hPa 0,0 l/m 1,0 km/h (0 Bft) O-SO 112 10,3 C 10,9 C 2,4 km/h (1 Bft)
20.08.2013 03:05 11,0 C 96 % 1025,8 hPa 0,0 l/m 1,1 km/h (1 Bft) O 90 10,4 C 10,8 C 4,8 km/h (1 Bft)
20.08.2013 03:10 10,9 C 96 % 1025,8 hPa 0,0 l/m 1,4 km/h (1 Bft) O-NO 67 10,3 C 10,8 C 3,5 km/h (1 Bft)
20.08.2013 03:15 10,9 C 96 % 1025,8 hPa 0,0 l/m 2,1 km/h (1 Bft) O 90 10,3 C 10,7 C 3,1 km/h (1 Bft)
20.08.2013 03:20 10,8 C 96 % 1025,8 hPa 0,0 l/m 1,6 km/h (1 Bft) O-NO 67 10,2 C 10,6 C 2,1 km/h (1 Bft)
20.08.2013 03:25 10,9 C 96 % 1026,0 hPa 0,0 l/m 1,4 km/h (1 Bft) NO 45 10,3 C 10,7 C 2,9 km/h (1 Bft)
20.08.2013 03:30 11,1 C 96 % 1026,0 hPa 0,0 l/m 1,4 km/h (1 Bft) O 90 10,5 C 10,9 C 3,2 km/h (1 Bft)
20.08.2013 03:35 11,1 C 96 % 1026,0 hPa 0,0 l/m 1,4 km/h (1 Bft) O-NO 67 10,5 C 10,9 C 3,2 km/h (1 Bft)
20.08.2013 03:40 11,0 C 96 % 1026,0 hPa 0,0 l/m 2,7 km/h (1 Bft) O-NO 67 10,4 C 10,9 C 5,0 km/h (1 Bft)
20.08.2013 03:45 10,9 C 96 % 1025,8 hPa 0,0 l/m 3,1 km/h (1 Bft) O-NO 67 10,3 C 10,9 C 3,9 km/h (1 Bft)
20.08.2013 03:50 10,7 C 96 % 1025,8 hPa 0,0 l/m 2,6 km/h (1 Bft) O 90 10,1 C 10,6 C 2,7 km/h (1 Bft)
20.08.2013 03:55 10,6 C 96 % 1025,8 hPa 0,0 l/m 2,4 km/h (1 Bft) O 90 10,0 C 10,6 C 2,9 km/h (1 Bft)
20.08.2013 04:00 10,7 C 96 % 1025,8 hPa 0,0 l/m 1,9 km/h (1 Bft) NO 45 10,1 C 10,4 C 4,0 km/h (1 Bft)
20.08.2013 04:05 10,7 C 96 % 1026,1 hPa 0,0 l/m 1,9 km/h (1 Bft) O-NO 67 10,1 C 10,5 C 0,0 km/h (0 Bft)
20.08.2013 04:10 10,7 C 96 % 1026,1 hPa 0,0 l/m 1,0 km/h (0 Bft) O-SO 112 10,1 C 10,4 C 0,0 km/h (0 Bft)
20.08.2013 04:15 10,9 C 96 % 1026,1 hPa 0,0 l/m 0,2 km/h (0 Bft) NO 45 10,3 C 10,5 C 3,1 km/h (1 Bft)
20.08.2013 04:20 11,0 C 96 % 1026,1 hPa 0,0 l/m 0,5 km/h (0 Bft) NO 45 10,4 C 10,7 C 0,0 km/h (0 Bft)
20.08.2013 04:25 11,0 C 96 % 1026,2 hPa 0,0 l/m 0,8 km/h (0 Bft) NO 45 10,4 C 10,8 C 2,9 km/h (1 Bft)
20.08.2013 04:30 11,2 C 96 % 1026,2 hPa 0,0 l/m 1,6 km/h (1 Bft) O 90 10,6 C 11,0 C 2,9 km/h (1 Bft)
20.08.2013 04:35 11,3 C 96 % 1026,2 hPa 0,0 l/m 2,4 km/h (1 Bft) O 90 10,7 C 11,1 C 3,7 km/h (1 Bft)
20.08.2013 04:40 11,4 C 96 % 1026,2 hPa 0,0 l/m 1,9 km/h (1 Bft) S-SO 157 10,8 C 11,3 C 0,0 km/h (0 Bft)
20.08.2013 04:45 11,5 C 96 % 1026,3 hPa 0,0 l/m 1,8 km/h (1 Bft) S-SO 157 10,9 C 11,4 C 2,7 km/h (1 Bft)
20.08.2013 04:50 11,5 C 96 % 1026,3 hPa 0,0 l/m 1,4 km/h (1 Bft) W-NW 292 10,9 C 11,4 C 3,1 km/h (1 Bft)
20.08.2013 04:55 11,5 C 96 % 1026,3 hPa 0,0 l/m 1,1 km/h (1 Bft) S-SW 202 10,9 C 11,4 C 0,0 km/h (0 Bft)
20.08.2013 05:00 11,4 C 96 % 1026,3 hPa 0,0 l/m 0,6 km/h (0 Bft) S 180 10,8 C 11,4 C 3,2 km/h (1 Bft)
20.08.2013 05:05 11,4 C 96 % 1026,4 hPa 0,0 l/m 1,3 km/h (1 Bft) S 180 10,8 C 11,4 C 1,9 km/h (1 Bft)
20.08.2013 05:10 11,3 C 96 % 1026,4 hPa 0,0 l/m 2,6 km/h (1 Bft) S-SO 157 10,7 C 11,4 C 5,1 km/h (1 Bft)
20.08.2013 05:15 11,3 C 96 % 1026,4 hPa 0,0 l/m 2,4 km/h (1 Bft) S-SO 157 10,7 C 11,3 C 5,0 km/h (1 Bft)
20.08.2013 05:20 11,1 C 96 % 1026,4 hPa 0,0 l/m 3,5 km/h (1 Bft) SO 135 10,5 C 11,2 C 4,0 km/h (1 Bft)
20.08.2013 05:25 10,9 C 96 % 1026,5 hPa 0,0 l/m 3,2 km/h (1 Bft) S 180 10,3 C 11,1 C 2,4 km/h (1 Bft)
20.08.2013 05:30 10,8 C 96 % 1026,5 hPa 0,0 l/m 2,1 km/h (1 Bft) SO 135 10,2 C 10,9 C 2,4 km/h (1 Bft)
20.08.2013 05:35 10,8 C 96 % 1026,5 hPa 0,0 l/m 1,6 km/h (1 Bft) NO 45 10,2 C 10,9 C 0,0 km/h (0 Bft)
20.08.2013 05:40 10,8 C 96 % 1026,5 hPa 0,0 l/m 1,1 km/h (1 Bft) SO 135 10,2 C 10,6 C 1,9 km/h (1 Bft)
20.08.2013 05:45 10,6 C 96 % 1026,6 hPa 0,0 l/m 0,8 km/h (0 Bft) O-SO 112 10,0 C 10,6 C 0,0 km/h (0 Bft)
20.08.2013 05:50 10,6 C 96 % 1026,6 hPa 0,0 l/m 1,0 km/h (0 Bft) S-SO 157 10,0 C 10,4 C 0,0 km/h (0 Bft)
20.08.2013 05:55 10,6 C 96 % 1026,6 hPa 0,0 l/m 0,8 km/h (0 Bft) O-SO 112 10,0 C 10,4 C 0,0 km/h (0 Bft)
20.08.2013 06:00 10,8 C 96 % 1026,6 hPa 0,0 l/m 0,8 km/h (0 Bft) NO 45 10,2 C 10,6 C 0,0 km/h (0 Bft)
20.08.2013 06:05 10,8 C 96 % 1026,5 hPa 0,0 l/m 1,1 km/h (1 Bft) O-NO 67 10,2 C 10,6 C 3,7 km/h (1 Bft)
20.08.2013 06:10 10,8 C 96 % 1026,5 hPa 0,0 l/m 1,8 km/h (1 Bft) O-NO 67 10,2 C 10,7 C 3,5 km/h (1 Bft)
20.08.2013 06:15 10,9 C 96 % 1026,5 hPa 0,0 l/m 2,1 km/h (1 Bft) O 90 10,3 C 10,7 C 2,3 km/h (1 Bft)
20.08.2013 06:20 11,0 C 96 % 1026,5 hPa 0,0 l/m 2,1 km/h (1 Bft) O-SO 112 10,4 C 10,8 C 3,1 km/h (1 Bft)
20.08.2013 06:25 11,0 C 96 % 1026,9 hPa 0,0 l/m 1,4 km/h (1 Bft) NO 45 10,4 C 10,9 C 0,0 km/h (0 Bft)
20.08.2013 06:30 11,0 C 96 % 1026,9 hPa 0,0 l/m 0,5 km/h (0 Bft) N-NO 22 10,4 C 10,9 C 0,0 km/h (0 Bft)
20.08.2013 06:35 11,0 C 96 % 1026,9 hPa 0,0 l/m 0,0 km/h (0 Bft) N 360 10,4 C 10,9 C 0,0 km/h (0 Bft)
20.08.2013 06:40 11,0 C 96 % 1026,9 hPa 0,0 l/m 0,0 km/h (0 Bft) NO 45 10,4 C 11,0 C 0,0 km/h (0 Bft)
20.08.2013 06:45 11,1 C 96 % 1026,9 hPa 0,0 l/m 0,0 km/h (0 Bft) O-NO 67 10,5 C 11,0 C 0,0 km/h (0 Bft)
20.08.2013 06:50 11,2 C 96 % 1026,9 hPa 0,0 l/m 0,0 km/h (0 Bft) N-NO 22 10,6 C 11,1 C 0,0 km/h (0 Bft)
20.08.2013 06:55 11,2 C 96 % 1026,9 hPa 0,0 l/m 0,0 km/h (0 Bft) NO 45 10,6 C 11,1 C 0,0 km/h (0 Bft)
20.08.2013 07:00 11,2 C 96 % 1026,9 hPa 0,0 l/m 0,0 km/h (0 Bft) W 270 10,6 C 11,1 C 0,0 km/h (0 Bft)
20.08.2013 07:05 11,2 C 96 % 1027,1 hPa 0,0 l/m 0,0 km/h (0 Bft) O 90 10,6 C 11,1 C 0,0 km/h (0 Bft)
20.08.2013 07:10 11,3 C 96 % 1027,1 hPa 0,0 l/m 0,0 km/h (0 Bft) O 90 10,7 C 11,2 C 0,0 km/h (0 Bft)
20.08.2013 07:15 11,3 C 96 % 1027,1 hPa 0,0 l/m 0,0 km/h (0 Bft) S-SW 202 10,7 C 11,2 C 0,0 km/h (0 Bft)
20.08.2013 07:20 11,4 C 96 % 1027,1 hPa 0,0 l/m 0,0 km/h (0 Bft) N-NO 22 10,8 C 11,4 C 0,0 km/h (0 Bft)
20.08.2013 07:25 11,5 C 96 % 1027,2 hPa 0,0 l/m 0,0 km/h (0 Bft) S 180 10,9 C 11,4 C 0,0 km/h (0 Bft)
20.08.2013 07:30 11,6 C 96 % 1027,2 hPa 0,0 l/m 0,3 km/h (0 Bft) S 180 11,0 C 11,5 C 1,9 km/h (1 Bft)
20.08.2013 07:35 11,7 C 96 % 1027,2 hPa 0,0 l/m 0,5 km/h (0 Bft) S-SO 157 11,1 C 11,6 C 1,6 km/h (1 Bft)
20.08.2013 07:40 11,8 C 96 % 1027,2 hPa 0,0 l/m 0,5 km/h (0 Bft) S-SO 157 11,2 C 11,8 C 0,0 km/h (0 Bft)
20.08.2013 07:45 11,9 C 96 % 1027,4 hPa 0,0 l/m 0,3 km/h (0 Bft) NO 45 11,3 C 11,9 C 0,0 km/h (0 Bft)
20.08.2013 07:50 11,8 C 96 % 1027,4 hPa 0,0 l/m 1,1 km/h (1 Bft) S-SO 157 11,2 C 11,8 C 3,4 km/h (1 Bft)
20.08.2013 07:55 11,6 C 96 % 1027,4 hPa 0,0 l/m 1,1 km/h (1 Bft) S-SO 157 11,0 C 11,8 C 0,0 km/h (0 Bft)
20.08.2013 08:00 11,6 C 96 % 1027,4 hPa 0,0 l/m 0,2 km/h (0 Bft) O-SO 112 11,0 C 11,7 C 0,0 km/h (0 Bft)
20.08.2013 08:05 11,6 C 96 % 1027,5 hPa 0,0 l/m 0,0 km/h (0 Bft) O-SO 112 11,0 C 11,6 C 0,0 km/h (0 Bft)
20.08.2013 08:10 11,7 C 96 % 1027,5 hPa 0,0 l/m 0,0 km/h (0 Bft) O 90 11,1 C 11,7 C 0,0 km/h (0 Bft)
20.08.2013 08:15 12,0 C 96 % 1027,5 hPa 0,0 l/m 0,0 km/h (0 Bft) O 90 11,4 C 12,0 C 0,0 km/h (0 Bft)
20.08.2013 08:20 12,1 C 96 % 1027,5 hPa 0,0 l/m 0,0 km/h (0 Bft) S-SO 157 11,5 C 12,3 C 0,0 km/h (0 Bft)
20.08.2013 08:25 12,0 C 96 % 1027,8 hPa 0,0 l/m 0,0 km/h (0 Bft) S 180 11,4 C 12,5 C 0,0 km/h (0 Bft)
20.08.2013 08:30 12,9 C 96 % 1027,8 hPa 0,0 l/m 0,0 km/h (0 Bft) W-NW 292 12,3 C 13,0 C 0,0 km/h (0 Bft)
20.08.2013 08:35 13,4 C 95 % 1027,8 hPa 0,0 l/m 0,0 km/h (0 Bft) SW 225 12,6 C 13,6 C 0,0 km/h (0 Bft)
20.08.2013 08:40 15,0 C 95 % 1027,8 hPa 0,0 l/m 0,3 km/h (0 Bft) S-SW 202 14,2 C 15,0 C 0,0 km/h (0 Bft)
20.08.2013 08:45 14,2 C 95 % 1027,9 hPa 0,0 l/m 1,1 km/h (1 Bft) W-SW 247 13,4 C 15,8 C 3,2 km/h (1 Bft)
20.08.2013 08:50 15,7 C 95 % 1027,9 hPa 0,0 l/m 2,1 km/h (1 Bft) S-SW 202 14,9 C 16,1 C 2,7 km/h (1 Bft)
20.08.2013 08:55 14,6 C 95 % 1027,9 hPa 0,0 l/m 2,4 km/h (1 Bft) W-SW 247 13,8 C 16,6 C 4,0 km/h (1 Bft)
20.08.2013 09:00 13,9 C 95 % 1027,9 hPa 0,0 l/m 1,6 km/h (1 Bft) SW 225 13,1 C 16,1 C 0,0 km/h (0 Bft)
20.08.2013 09:05 13,4 C 95 % 1027,9 hPa 0,0 l/m 1,3 km/h (1 Bft) S-SW 202 12,6 C 15,7 C 2,4 km/h (1 Bft)
20.08.2013 09:10 13,6 C 95 % 1027,9 hPa 0,0 l/m 1,0 km/h (0 Bft) W-SW 247 12,8 C 15,3 C 0,0 km/h (0 Bft)
20.08.2013 09:15 13,7 C 95 % 1027,9 hPa 0,0 l/m 0,8 km/h (0 Bft) S-SW 202 12,9 C 15,1 C 0,0 km/h (0 Bft)
20.08.2013 09:20 15,5 C 94 % 1027,9 hPa 0,0 l/m 1,3 km/h (1 Bft) SO 135 14,5 C 15,7 C 0,0 km/h (0 Bft)
20.08.2013 09:25 14,9 C 94 % 1028,0 hPa 0,0 l/m 1,1 km/h (1 Bft) W-NW 292 13,9 C 15,9 C 1,9 km/h (1 Bft)
20.08.2013 09:30 14,1 C 94 % 1028,0 hPa 0,0 l/m 0,8 km/h (0 Bft) S-SO 157 13,1 C 15,7 C 0,0 km/h (0 Bft)
20.08.2013 09:35 14,1 C 94 % 1028,0 hPa 0,0 l/m 0,6 km/h (0 Bft) S-SO 157 13,1 C 15,7 C 0,0 km/h (0 Bft)
20.08.2013 09:40 13,8 C 93 % 1028,0 hPa 0,0 l/m 0,3 km/h (0 Bft) S-SO 157 12,7 C 15,4 C 0,0 km/h (0 Bft)
20.08.2013 09:45 14,4 C 93 % 1028,0 hPa 0,0 l/m 0,2 km/h (0 Bft) W-SW 247 13,3 C 15,4 C 3,4 km/h (1 Bft)
20.08.2013 09:50 15,2 C 93 % 1028,0 hPa 0,0 l/m 0,5 km/h (0 Bft) S 180 14,1 C 15,4 C 0,0 km/h (0 Bft)
20.08.2013 09:55 17,7 C 90 % 1028,0 hPa 0,0 l/m 0,6 km/h (0 Bft) SO 135 16,0 C 16,6 C 1,6 km/h (1 Bft)
20.08.2013 10:00 19,1 C 87 % 1028,0 hPa 0,0 l/m 0,3 km/h (0 Bft) W-NW 292 16,9 C 19,2 C 0,0 km/h (0 Bft)
20.08.2013 10:05 18,7 C 85 % 1028,4 hPa 0,0 l/m 0,3 km/h (0 Bft) S 180 16,1 C 20,9 C 0,0 km/h (0 Bft)
20.08.2013 10:10 18,8 C 83 % 1028,4 hPa 0,0 l/m 0,8 km/h (0 Bft) W 270 15,8 C 22,0 C 4,8 km/h (1 Bft)
20.08.2013 10:15 19,1 C 82 % 1028,4 hPa 0,0 l/m 1,3 km/h (1 Bft) S-SO 157 16,0 C 22,1 C 0,0 km/h (0 Bft)
20.08.2013 10:20 16,7 C 85 % 1028,4 hPa 0,0 l/m 1,4 km/h (1 Bft) SO 135 14,2 C 20,9 C 0,0 km/h (0 Bft)
20.08.2013 10:25 16,9 C 87 % 1028,7 hPa 0,0 l/m 1,0 km/h (0 Bft) W-SW 247 14,7 C 19,7 C 1,6 km/h (1 Bft)
20.08.2013 10:30 17,3 C 87 % 1028,7 hPa 0,0 l/m 1,8 km/h (1 Bft) S 180 15,1 C 18,8 C 6,4 km/h (2 Bft)
20.08.2013 10:35 17,8 C 85 % 1028,7 hPa 0,0 l/m 2,9 km/h (1 Bft) W 270 15,2 C 19,1 C 2,4 km/h (1 Bft)
20.08.2013 10:40 15,6 C 86 % 1028,7 hPa 0,0 l/m 3,7 km/h (1 Bft) S-SW 202 13,3 C 17,7 C 2,4 km/h (1 Bft)
20.08.2013 10:45 15,2 C 87 % 1028,6 hPa 0,0 l/m 3,1 km/h (1 Bft) W 270 13,0 C 16,8 C 2,6 km/h (1 Bft)
20.08.2013 10:50 14,9 C 89 % 1028,6 hPa 0,0 l/m 2,6 km/h (1 Bft) W-SW 247 13,1 C 15,9 C 0,0 km/h (0 Bft)
20.08.2013 10:55 16,4 C 88 % 1028,6 hPa 0,0 l/m 1,6 km/h (1 Bft) S 180 14,4 C 15,8 C 0,0 km/h (0 Bft)
20.08.2013 11:00 19,1 C 83 % 1028,6 hPa 0,0 l/m 1,1 km/h (1 Bft) W-SW 247 16,1 C 19,1 C 3,1 km/h (1 Bft)
20.08.2013 11:05 19,8 C 81 % 1029,1 hPa 0,0 l/m 2,1 km/h (1 Bft) S 180 16,4 C 20,5 C 4,3 km/h (1 Bft)
20.08.2013 11:10 17,5 C 82 % 1029,1 hPa 0,0 l/m 3,4 km/h (1 Bft) S 180 14,4 C 20,5 C 2,7 km/h (1 Bft)
20.08.2013 11:15 16,8 C 83 % 1029,1 hPa 0,0 l/m 3,2 km/h (1 Bft) S-SW 202 13,9 C 19,6 C 5,6 km/h (1 Bft)
20.08.2013 11:20 16,5 C 83 % 1029,1 hPa 0,0 l/m 3,7 km/h (1 Bft) S-SW 202 13,6 C 18,4 C 11,3 km/h (2 Bft)
20.08.2013 11:25 16,2 C 84 % 1029,2 hPa 0,0 l/m 4,2 km/h (1 Bft) W-SW 247 13,5 C 17,5 C 2,6 km/h (1 Bft)
20.08.2013 11:30 16,0 C 86 % 1029,2 hPa 0,0 l/m 2,6 km/h (1 Bft) W-SW 247 13,7 C 17,0 C 3,5 km/h (1 Bft)
20.08.2013 11:35 19,1 C 84 % 1029,2 hPa 0,0 l/m 1,4 km/h (1 Bft) SO 135 16,3 C 17,6 C 0,0 km/h (0 Bft)
20.08.2013 11:40 20,2 C 72 % 1029,2 hPa 0,0 l/m 2,6 km/h (1 Bft) W-SW 247 15,0 C 18,9 C 11,9 km/h (2 Bft)
20.08.2013 11:45 17,9 C 75 % 1029,4 hPa 0,0 l/m 4,0 km/h (1 Bft) S-SW 202 13,4 C 18,5 C 2,3 km/h (1 Bft)
20.08.2013 11:50 19,4 C 74 % 1029,4 hPa 0,0 l/m 4,5 km/h (1 Bft) W-SW 247 14,6 C 18,3 C 4,5 km/h (1 Bft)
20.08.2013 11:55 20,5 C 70 % 1029,4 hPa 0,0 l/m 3,7 km/h (1 Bft) S-SW 202 14,8 C 19,2 C 5,0 km/h (1 Bft)
20.08.2013 12:00 18,7 C 71 % 1029,4 hPa 0,0 l/m 4,2 km/h (1 Bft) W 270 13,3 C 20,2 C 8,5 km/h (2 Bft)
20.08.2013 12:05 17,9 C 73 % 1029,7 hPa 0,0 l/m 4,3 km/h (1 Bft) S-SO 157 13,0 C 19,6 C 4,8 km/h (1 Bft)
20.08.2013 12:10 18,0 C 77 % 1029,7 hPa 0,0 l/m 3,1 km/h (1 Bft) S-SO 157 13,9 C 18,7 C 2,7 km/h (1 Bft)
20.08.2013 12:15 21,0 C 67 % 1029,7 hPa 0,0 l/m 2,7 km/h (1 Bft) S-SO 157 14,6 C 19,6 C 5,1 km/h (1 Bft)
20.08.2013 12:20 17,9 C 66 % 1029,7 hPa 0,0 l/m 4,3 km/h (1 Bft) S-SW 202 11,5 C 20,2 C 9,5 km/h (2 Bft)
20.08.2013 12:25 18,3 C 64 % 1029,3 hPa 0,0 l/m 5,8 km/h (2 Bft) NW 315 11,4 C 18,8 C 4,5 km/h (1 Bft)
20.08.2013 12:30 20,6 C 56 % 1029,3 hPa 0,0 l/m 4,3 km/h (1 Bft) SW 225 11,5 C 20,2 C 8,0 km/h (2 Bft)
20.08.2013 12:35 20,1 C 54 % 1029,3 hPa 0,0 l/m 5,0 km/h (1 Bft) S-SW 202 10,5 C 21,3 C 8,4 km/h (2 Bft)
20.08.2013 12:40 17,3 C 60 % 1029,3 hPa 0,0 l/m 6,3 km/h (2 Bft) W-SW 247 9,5 C 19,6 C 6,8 km/h (2 Bft)
20.08.2013 12:45 16,8 C 63 % 1029,5 hPa 0,0 l/m 5,6 km/h (1 Bft) S 180 9,7 C 18,4 C 5,3 km/h (1 Bft)
20.08.2013 12:50 16,5 C 65 % 1029,5 hPa 0,0 l/m 4,5 km/h (1 Bft) S 180 9,9 C 17,4 C 4,7 km/h (1 Bft)
20.08.2013 12:55 17,9 C 65 % 1029,5 hPa 0,0 l/m 3,5 km/h (1 Bft) W 270 11,2 C 17,4 C 3,7 km/h (1 Bft)
20.08.2013 13:00 20,5 C 55 % 1029,5 hPa 0,0 l/m 3,2 km/h (1 Bft) N-NW 337 11,1 C 20,0 C 2,6 km/h (1 Bft)
20.08.2013 13:05 18,6 C 51 % 1029,6 hPa 0,0 l/m 4,0 km/h (1 Bft) W 270 8,3 C 20,8 C 6,9 km/h (2 Bft)
20.08.2013 13:10 17,2 C 56 % 1029,6 hPa 0,0 l/m 4,2 km/h (1 Bft) W-SW 247 8,3 C 19,4 C 6,0 km/h (2 Bft)
20.08.2013 13:15 16,9 C 57 % 1029,6 hPa 0,0 l/m 4,7 km/h (1 Bft) S-SW 202 8,3 C 18,7 C 6,8 km/h (2 Bft)
20.08.2013 13:20 17,8 C 55 % 1029,6 hPa 0,0 l/m 5,1 km/h (1 Bft) SW 225 8,6 C 18,2 C 6,8 km/h (2 Bft)
20.08.2013 13:25 17,7 C 57 % 1029,6 hPa 0,0 l/m 4,8 km/h (1 Bft) SW 225 9,1 C 18,5 C 3,1 km/h (1 Bft)
20.08.2013 13:30 19,7 C 51 % 1029,6 hPa 0,0 l/m 4,3 km/h (1 Bft) W-SW 247 9,3 C 19,4 C 6,4 km/h (2 Bft)
20.08.2013 13:35 19,8 C 48 % 1029,6 hPa 0,0 l/m 4,0 km/h (1 Bft) W-NW 292 8,5 C 20,3 C 2,1 km/h (1 Bft)
20.08.2013 13:40 20,3 C 47 % 1029,6 hPa 0,0 l/m 4,0 km/h (1 Bft) N-NW 337 8,6 C 21,7 C 12,4 km/h (3 Bft)
20.08.2013 13:45 21,1 C 46 % 1030,1 hPa 0,0 l/m 4,2 km/h (1 Bft) W-SW 247 9,0 C 22,6 C 8,4 km/h (2 Bft)
20.08.2013 13:50 18,9 C 49 % 1030,1 hPa 0,0 l/m 5,6 km/h (1 Bft) W 270 7,9 C 21,4 C 6,1 km/h (2 Bft)
20.08.2013 13:55 18,6 C 50 % 1030,1 hPa 0,0 l/m 6,6 km/h (2 Bft) S 180 8,0 C 20,4 C 9,0 km/h (2 Bft)
20.08.2013 14:00 17,6 C 53 % 1030,1 hPa 0,0 l/m 4,8 km/h (1 Bft) W-SW 247 7,9 C 19,4 C 6,8 km/h (2 Bft)
20.08.2013 14:05 17,3 C 55 % 1029,9 hPa 0,0 l/m 4,8 km/h (1 Bft) SW 225 8,2 C 18,8 C 6,4 km/h (2 Bft)
20.08.2013 14:10 19,3 C 51 % 1029,9 hPa 0,0 l/m 5,1 km/h (1 Bft) SW 225 8,9 C 19,3 C 6,4 km/h (2 Bft)
20.08.2013 14:15 19,9 C 50 % 1029,9 hPa 0,0 l/m 5,6 km/h (1 Bft) W-SW 247 9,2 C 20,2 C 3,9 km/h (1 Bft)
20.08.2013 14:20 20,3 C 49 % 1029,9 hPa 0,0 l/m 6,4 km/h (2 Bft) W-SW 247 9,2 C 21,0 C 13,4 km/h (3 Bft)
20.08.2013 14:25 20,3 C 48 % 1030,0 hPa 0,0 l/m 5,8 km/h (2 Bft) W 270 8,9 C 21,4 C 4,8 km/h (1 Bft)
20.08.2013 14:30 20,8 C 47 % 1030,0 hPa 0,0 l/m 4,7 km/h (1 Bft) W-SW 247 9,1 C 22,1 C 6,6 km/h (2 Bft)
20.08.2013 14:35 20,2 C 47 % 1030,0 hPa 0,0 l/m 3,9 km/h (1 Bft) W 270 8,5 C 22,4 C 5,1 km/h (1 Bft)
20.08.2013 14:40 18,3 C 49 % 1030,0 hPa 0,0 l/m 4,8 km/h (1 Bft) S 180 7,4 C 20,8 C 5,1 km/h (1 Bft)
20.08.2013 14:45 18,6 C 50 % 1030,0 hPa 0,0 l/m 5,0 km/h (1 Bft) W-SW 247 8,0 C 19,7 C 7,4 km/h (2 Bft)
20.08.2013 14:50 20,6 C 45 % 1030,0 hPa 0,0 l/m 4,5 km/h (1 Bft) N-NO 22 8,2 C 21,0 C 10,8 km/h (2 Bft)
20.08.2013 14:55 21,1 C 45 % 1030,0 hPa 0,0 l/m 5,5 km/h (1 Bft) S 180 8,7 C 21,8 C 10,6 km/h (2 Bft)
20.08.2013 15:00 21,7 C 44 % 1030,0 hPa 0,0 l/m 4,8 km/h (1 Bft) W 270 8,9 C 23,1 C 3,7 km/h (1 Bft)
20.08.2013 15:05 20,4 C 45 % 1029,9 hPa 0,0 l/m 4,5 km/h (1 Bft) W 270 8,1 C 23,3 C 5,5 km/h (1 Bft)
20.08.2013 15:10 18,5 C 49 % 1029,9 hPa 0,0 l/m 5,0 km/h (1 Bft) S 180 7,6 C 21,3 C 3,7 km/h (1 Bft)
20.08.2013 15:15 18,3 C 51 % 1029,9 hPa 0,0 l/m 4,2 km/h (1 Bft) W 270 8,0 C 20,4 C 1,9 km/h (1 Bft)
20.08.2013 15:20 17,8 C 51 % 1029,9 hPa 0,0 l/m 2,4 km/h (1 Bft) W-NW 292 7,5 C 19,7 C 6,6 km/h (2 Bft)
20.08.2013 15:25 18,0 C 50 % 1029,8 hPa 0,0 l/m 2,4 km/h (1 Bft) N-NW 337 7,4 C 19,4 C 3,2 km/h (1 Bft)
20.08.2013 15:30 20,7 C 49 % 1029,8 hPa 0,0 l/m 2,1 km/h (1 Bft) W-SW 247 9,6 C 20,9 C 0,0 km/h (0 Bft)
20.08.2013 15:35 19,3 C 49 % 1029,8 hPa 0,0 l/m 1,6 km/h (1 Bft) S 180 8,3 C 22,0 C 5,0 km/h (1 Bft)
20.08.2013 15:40 18,1 C 52 % 1029,8 hPa 0,0 l/m 3,1 km/h (1 Bft) S 180 8,1 C 20,5 C 6,0 km/h (2 Bft)
20.08.2013 15:45 17,7 C 54 % 1029,3 hPa 0,0 l/m 3,7 km/h (1 Bft) S 180 8,3 C 19,5 C 3,7 km/h (1 Bft)
20.08.2013 15:50 17,4 C 54 % 1029,3 hPa 0,0 l/m 3,1 km/h (1 Bft) SW 225 8,0 C 18,6 C 4,3 km/h (1 Bft)
20.08.2013 15:55 17,3 C 56 % 1029,3 hPa 0,0 l/m 2,3 km/h (1 Bft) S 180 8,4 C 18,4 C 2,6 km/h (1 Bft)
20.08.2013 16:00 17,4 C 56 % 1029,3 hPa 0,0 l/m 1,3 km/h (1 Bft) S 180 8,5 C 18,2 C 0,0 km/h (0 Bft)
20.08.2013 16:05 17,5 C 58 % 1028,9 hPa 0,0 l/m 0,5 km/h (0 Bft) S 180 9,1 C 18,4 C 0,0 km/h (0 Bft)
20.08.2013 16:10 17,7 C 59 % 1028,9 hPa 0,0 l/m 0,5 km/h (0 Bft) S-SW 202 9,6 C 18,9 C 3,2 km/h (1 Bft)
20.08.2013 16:15 17,9 C 58 % 1028,9 hPa 0,0 l/m 0,6 km/h (0 Bft) S-SW 202 9,5 C 19,0 C 1,6 km/h (1 Bft)
20.08.2013 16:20 18,3 C 54 % 1028,9 hPa 0,0 l/m 0,5 km/h (0 Bft) NO 45 8,8 C 19,6 C 1,6 km/h (1 Bft)
20.08.2013 16:25 19,2 C 50 % 1029,1 hPa 0,0 l/m 1,4 km/h (1 Bft) N 360 8,5 C 21,2 C 5,5 km/h (1 Bft)
20.08.2013 16:30 20,3 C 49 % 1029,1 hPa 0,0 l/m 2,9 km/h (1 Bft) W 270 9,2 C 23,3 C 2,7 km/h (1 Bft)
20.08.2013 16:35 19,8 C 49 % 1029,1 hPa 0,0 l/m 4,2 km/h (1 Bft) W-SW 247 8,8 C 24,0 C 6,1 km/h (2 Bft)
20.08.2013 16:40 18,2 C 52 % 1029,1 hPa 0,0 l/m 5,0 km/h (1 Bft) S-SW 202 8,2 C 22,7 C 2,7 km/h (1 Bft)
20.08.2013 16:45 17,8 C 55 % 1029,4 hPa 0,0 l/m 4,5 km/h (1 Bft) N-NW 337 8,6 C 21,2 C 5,1 km/h (1 Bft)
20.08.2013 16:50 17,3 C 57 % 1029,4 hPa 0,0 l/m 4,2 km/h (1 Bft) O-SO 112 8,7 C 19,9 C 3,2 km/h (1 Bft)
20.08.2013 16:55 17,0 C 58 % 1029,4 hPa 0,0 l/m 3,9 km/h (1 Bft) NW 315 8,7 C 19,8 C 4,3 km/h (1 Bft)
20.08.2013 17:00 17,0 C 59 % 1029,4 hPa 0,0 l/m 3,4 km/h (1 Bft) N-NW 337 8,9 C 19,1 C 3,7 km/h (1 Bft)
20.08.2013 17:05 17,1 C 59 % 1029,4 hPa 0,0 l/m 3,7 km/h (1 Bft) W-NW 292 9,0 C 18,9 C 4,7 km/h (1 Bft)
20.08.2013 17:10 17,3 C 59 % 1029,4 hPa 0,0 l/m 4,0 km/h (1 Bft) W 270 9,2 C 19,9 C 4,5 km/h (1 Bft)
20.08.2013 17:15 16,9 C 60 % 1029,4 hPa 0,0 l/m 4,3 km/h (1 Bft) W-NW 292 9,1 C 20,1 C 6,9 km/h (2 Bft)
20.08.2013 17:20 16,6 C 61 % 1029,4 hPa 0,0 l/m 5,5 km/h (1 Bft) W 270 9,0 C 18,7 C 5,5 km/h (1 Bft)
20.08.2013 17:25 16,4 C 62 % 1029,1 hPa 0,0 l/m 6,0 km/h (2 Bft) N 360 9,1 C 17,7 C 6,4 km/h (2 Bft)
20.08.2013 17:30 16,3 C 64 % 1029,1 hPa 0,0 l/m 5,5 km/h (1 Bft) W-NW 292 9,5 C 17,0 C 13,7 km/h (3 Bft)
20.08.2013 17:35 16,0 C 65 % 1029,1 hPa 0,0 l/m 5,5 km/h (1 Bft) W 270 9,4 C 16,6 C 5,6 km/h (1 Bft)
20.08.2013 17:40 15,7 C 67 % 1029,1 hPa 0,0 l/m 5,6 km/h (1 Bft) W-NW 292 9,6 C 16,2 C 8,9 km/h (2 Bft)
20.08.2013 17:45 15,6 C 67 % 1028,9 hPa 0,0 l/m 5,0 km/h (1 Bft) W 270 9,5 C 16,0 C 7,6 km/h (2 Bft)
20.08.2013 17:50 15,4 C 67 % 1028,9 hPa 0,0 l/m 3,7 km/h (1 Bft) S-SW 202 9,3 C 15,8 C 0,0 km/h (0 Bft)
20.08.2013 17:55 15,3 C 68 % 1028,9 hPa 0,0 l/m 3,4 km/h (1 Bft) W 270 9,4 C 15,8 C 4,3 km/h (1 Bft)
20.08.2013 18:00 15,3 C 68 % 1028,9 hPa 0,0 l/m 3,2 km/h (1 Bft) N-NO 22 9,4 C 15,7 C 9,8 km/h (2 Bft)
20.08.2013 18:05 15,3 C 68 % 1028,9 hPa 0,0 l/m 3,4 km/h (1 Bft) S 180 9,4 C 15,6 C 3,1 km/h (1 Bft)
20.08.2013 18:10 15,4 C 68 % 1028,9 hPa 0,0 l/m 3,7 km/h (1 Bft) W-SW 247 9,5 C 15,5 C 5,1 km/h (1 Bft)
20.08.2013 18:15 15,3 C 69 % 1028,9 hPa 0,0 l/m 3,9 km/h (1 Bft) W-NW 292 9,6 C 15,5 C 4,3 km/h (1 Bft)
20.08.2013 18:20 15,3 C 69 % 1028,9 hPa 0,0 l/m 3,2 km/h (1 Bft) W-NW 292 9,6 C 15,5 C 0,0 km/h (0 Bft)
20.08.2013 18:25 15,3 C 69 % 1029,0 hPa 0,0 l/m 1,6 km/h (1 Bft) W-NW 292 9,6 C 15,5 C 1,9 km/h (1 Bft)
20.08.2013 18:30 15,1 C 69 % 1029,0 hPa 0,0 l/m 1,8 km/h (1 Bft) SO 135 9,5 C 15,6 C 6,1 km/h (2 Bft)
20.08.2013 18:35 15,0 C 69 % 1029,0 hPa 0,0 l/m 3,2 km/h (1 Bft) W-SW 247 9,4 C 15,4 C 6,3 km/h (2 Bft)
20.08.2013 18:40 14,9 C 70 % 1029,0 hPa 0,0 l/m 3,7 km/h (1 Bft) NW 315 9,5 C 15,2 C 4,2 km/h (1 Bft)
20.08.2013 18:45 14,8 C 69 % 1029,1 hPa 0,0 l/m 3,5 km/h (1 Bft) W-NW 292 9,2 C 15,2 C 4,3 km/h (1 Bft)
20.08.2013 18:50 14,7 C 70 % 1029,1 hPa 0,0 l/m 3,4 km/h (1 Bft) W 270 9,3 C 15,0 C 5,3 km/h (1 Bft)
20.08.2013 18:55 14,6 C 70 % 1029,1 hPa 0,0 l/m 3,5 km/h (1 Bft) W 270 9,2 C 15,0 C 4,2 km/h (1 Bft)
20.08.2013 19:00 14,5 C 71 % 1029,1 hPa 0,0 l/m 3,5 km/h (1 Bft) W 270 9,3 C 14,8 C 3,2 km/h (1 Bft)
20.08.2013 19:05 14,5 C 71 % 1029,2 hPa 0,0 l/m 2,9 km/h (1 Bft) W 270 9,3 C 14,8 C 0,0 km/h (0 Bft)
20.08.2013 19:10 14,5 C 70 % 1029,2 hPa 0,0 l/m 2,4 km/h (1 Bft) W 270 9,1 C 14,7 C 2,9 km/h (1 Bft)
20.08.2013 19:15 14,5 C 71 % 1029,2 hPa 0,0 l/m 1,9 km/h (1 Bft) W-NW 292 9,3 C 14,7 C 1,6 km/h (1 Bft)
20.08.2013 19:20 14,5 C 71 % 1029,2 hPa 0,0 l/m 1,8 km/h (1 Bft) W-SW 247 9,3 C 14,6 C 0,0 km/h (0 Bft)
20.08.2013 19:25 14,5 C 71 % 1029,2 hPa 0,0 l/m 1,8 km/h (1 Bft) W-NW 292 9,3 C 14,6 C 2,1 km/h (1 Bft)
20.08.2013 19:30 14,4 C 71 % 1029,2 hPa 0,0 l/m 2,1 km/h (1 Bft) W-NW 292 9,2 C 14,6 C 2,4 km/h (1 Bft)
20.08.2013 19:35 14,4 C 71 % 1029,2 hPa 0,0 l/m 2,3 km/h (1 Bft) W-SW 247 9,2 C 14,6 C 2,3 km/h (1 Bft)
20.08.2013 19:40 14,3 C 72 % 1029,2 hPa 0,0 l/m 2,4 km/h (1 Bft) N 360 9,3 C 14,5 C 4,8 km/h (1 Bft)
20.08.2013 19:45 14,2 C 72 % 1029,4 hPa 0,0 l/m 2,1 km/h (1 Bft) W-NW 292 9,2 C 14,5 C 2,9 km/h (1 Bft)
20.08.2013 19:50 14,1 C 73 % 1029,4 hPa 0,0 l/m 2,3 km/h (1 Bft) W-NW 292 9,3 C 14,4 C 3,7 km/h (1 Bft)
20.08.2013 19:55 14,0 C 73 % 1029,4 hPa 0,0 l/m 1,8 km/h (1 Bft) SW 225 9,2 C 14,5 C 1,8 km/h (1 Bft)
20.08.2013 20:00 14,0 C 73 % 1029,4 hPa 0,0 l/m 1,8 km/h (1 Bft) W-NW 292 9,2 C 14,8 C 0,0 km/h (0 Bft)
20.08.2013 20:05 13,9 C 74 % 1029,3 hPa 0,0 l/m 1,3 km/h (1 Bft) N 360 9,3 C 15,0 C 0,0 km/h (0 Bft)
20.08.2013 20:10 13,8 C 74 % 1029,3 hPa 0,0 l/m 1,1 km/h (1 Bft) W-NW 292 9,2 C 15,0 C 0,0 km/h (0 Bft)
20.08.2013 20:15 13,8 C 74 % 1029,3 hPa 0,0 l/m 1,3 km/h (1 Bft) N-NW 337 9,2 C 14,9 C 4,5 km/h (1 Bft)
20.08.2013 20:20 13,5 C 75 % 1029,3 hPa 0,0 l/m 1,6 km/h (1 Bft) W-NW 292 9,2 C 14,3 C 2,9 km/h (1 Bft)
20.08.2013 20:25 13,3 C 75 % 1029,5 hPa 0,0 l/m 2,3 km/h (1 Bft) N-NW 337 9,0 C 13,9 C 0,0 km/h (0 Bft)
20.08.2013 20:30 13,1 C 76 % 1029,5 hPa 0,0 l/m 1,8 km/h (1 Bft) N 360 9,0 C 13,4 C 3,4 km/h (1 Bft)
20.08.2013 20:35 13,0 C 76 % 1029,5 hPa 0,0 l/m 1,4 km/h (1 Bft) O 90 8,9 C 13,2 C 2,3 km/h (1 Bft)
20.08.2013 20:40 12,9 C 77 % 1029,5 hPa 0,0 l/m 1,6 km/h (1 Bft) O 90 9,0 C 12,9 C 3,4 km/h (1 Bft)
20.08.2013 20:45 12,8 C 77 % 1029,6 hPa 0,0 l/m 1,6 km/h (1 Bft) O 90 8,9 C 12,7 C 2,1 km/h (1 Bft)
20.08.2013 20:50 12,7 C 78 % 1029,6 hPa 0,0 l/m 2,1 km/h (1 Bft) O 90 9,0 C 12,6 C 2,1 km/h (1 Bft)
20.08.2013 20:55 12,6 C 78 % 1029,6 hPa 0,0 l/m 1,8 km/h (1 Bft) NO 45 8,9 C 12,4 C 0,0 km/h (0 Bft)
20.08.2013 21:00 12,4 C 78 % 1029,6 hPa 0,0 l/m 1,6 km/h (1 Bft) NO 45 8,7 C 12,3 C 4,5 km/h (1 Bft)
20.08.2013 21:05 12,1 C 79 % 1029,6 hPa 0,0 l/m 1,8 km/h (1 Bft) NO 45 8,6 C 12,1 C 1,8 km/h (1 Bft)
20.08.2013 21:10 11,9 C 79 % 1029,6 hPa 0,0 l/m 1,8 km/h (1 Bft) NO 45 8,4 C 11,9 C 0,0 km/h (0 Bft)
20.08.2013 21:15 11,5 C 79 % 1029,6 hPa 0,0 l/m 1,0 km/h (0 Bft) O 90 8,0 C 11,5 C 2,6 km/h (1 Bft)
20.08.2013 21:20 11,2 C 80 % 1029,6 hPa 0,0 l/m 0,5 km/h (0 Bft) O 90 7,9 C 11,1 C 0,0 km/h (0 Bft)
20.08.2013 21:25 11,0 C 81 % 1029,4 hPa 0,0 l/m 0,5 km/h (0 Bft) NO 45 7,9 C 10,8 C 2,1 km/h (1 Bft)
20.08.2013 21:30 10,7 C 82 % 1029,4 hPa 0,0 l/m 0,5 km/h (0 Bft) O-NO 67 7,8 C 10,4 C 3,1 km/h (1 Bft)
20.08.2013 21:35 10,6 C 82 % 1029,4 hPa 0,0 l/m 0,5 km/h (0 Bft) O-NO 67 7,7 C 10,3 C 1,9 km/h (1 Bft)
20.08.2013 21:40 10,6 C 83 % 1029,4 hPa 0,0 l/m 0,6 km/h (0 Bft) O 90 7,8 C 10,1 C 0,0 km/h (0 Bft)
20.08.2013 21:45 10,5 C 83 % 1029,3 hPa 0,0 l/m 0,3 km/h (0 Bft) O-NO 67 7,7 C 10,0 C 0,0 km/h (0 Bft)
20.08.2013 21:50 10,3 C 83 % 1029,3 hPa 0,0 l/m 0,2 km/h (0 Bft) O 90 7,5 C 9,8 C 0,0 km/h (0 Bft)
20.08.2013 21:55 10,3 C 84 % 1029,3 hPa 0,0 l/m 0,2 km/h (0 Bft) NO 45 7,7 C 9,7 C 0,0 km/h (0 Bft)
20.08.2013 22:00 10,0 C 84 % 1029,3 hPa 0,0 l/m 0,0 km/h (0 Bft) NO 45 7,4 C 9,6 C 0,0 km/h (0 Bft)
20.08.2013 22:05 10,0 C 85 % 1029,2 hPa 0,0 l/m 0,2 km/h (0 Bft) O 90 7,6 C 9,4 C 0,0 km/h (0 Bft)
20.08.2013 22:10 9,9 C 85 % 1029,2 hPa 0,0 l/m 0,2 km/h (0 Bft) O 90 7,5 C 9,3 C 0,0 km/h (0 Bft)
20.08.2013 22:15 9,7 C 85 % 1029,2 hPa 0,0 l/m 0,0 km/h (0 Bft) NO 45 7,3 C 9,2 C 0,0 km/h (0 Bft)
20.08.2013 22:20 9,6 C 86 % 1029,2 hPa 0,0 l/m 0,0 km/h (0 Bft) O-NO 67 7,4 C 9,1 C 0,0 km/h (0 Bft)
20.08.2013 22:25 9,5 C 86 % 1029,2 hPa 0,0 l/m 0,0 km/h (0 Bft) NO 45 7,3 C 9,0 C 0,0 km/h (0 Bft)
20.08.2013 22:30 9,2 C 86 % 1029,2 hPa 0,0 l/m 0,0 km/h (0 Bft) O 90 7,0 C 9,0 C 0,0 km/h (0 Bft)
20.08.2013 22:35 9,5 C 87 % 1029,2 hPa 0,0 l/m 0,0 km/h (0 Bft) O-NO 67 7,4 C 8,8 C 0,0 km/h (0 Bft)
20.08.2013 22:40 9,3 C 87 % 1029,2 hPa 0,0 l/m 0,0 km/h (0 Bft) O-NO 67 7,2 C 8,8 C 0,0 km/h (0 Bft)
20.08.2013 22:45 9,5 C 87 % 1029,1 hPa 0,0 l/m 0,2 km/h (0 Bft) O-NO 67 7,4 C 8,9 C 2,3 km/h (1 Bft)
20.08.2013 22:50 9,7 C 88 % 1029,1 hPa 0,0 l/m 0,5 km/h (0 Bft) O-SO 112 7,8 C 9,1 C 0,0 km/h (0 Bft)
20.08.2013 22:55 9,6 C 88 % 1029,1 hPa 0,0 l/m 0,5 km/h (0 Bft) O-NO 67 7,7 C 9,0 C 0,0 km/h (0 Bft)
20.08.2013 23:00 9,1 C 88 % 1029,1 hPa 0,0 l/m 0,0 km/h (0 Bft) SO 135 7,2 C 8,8 C 0,0 km/h (0 Bft)
20.08.2013 23:05 9,2 C 88 % 1028,9 hPa 0,0 l/m 0,3 km/h (0 Bft) NO 45 7,3 C 8,6 C 2,4 km/h (1 Bft)
20.08.2013 23:10 9,2 C 88 % 1028,9 hPa 0,0 l/m 1,4 km/h (1 Bft) O-SO 112 7,3 C 8,6 C 3,4 km/h (1 Bft)
20.08.2013 23:15 9,2 C 88 % 1028,9 hPa 0,0 l/m 1,9 km/h (1 Bft) NO 45 7,3 C 8,6 C 0,0 km/h (0 Bft)
20.08.2013 23:20 8,9 C 89 % 1028,9 hPa 0,0 l/m 1,1 km/h (1 Bft) O 90 7,2 C 8,4 C 0,0 km/h (0 Bft)
20.08.2013 23:25 9,0 C 88 % 1028,8 hPa 0,0 l/m 0,3 km/h (0 Bft) NO 45 7,1 C 8,2 C 0,0 km/h (0 Bft)
20.08.2013 23:30 8,6 C 89 % 1028,8 hPa 0,0 l/m 0,0 km/h (0 Bft) O-SO 112 6,9 C 8,0 C 0,0 km/h (0 Bft)
20.08.2013 23:35 8,3 C 88 % 1028,8 hPa 0,0 l/m 0,0 km/h (0 Bft) O 90 6,4 C 7,9 C 0,0 km/h (0 Bft)
20.08.2013 23:40 8,2 C 88 % 1028,8 hPa 0,0 l/m 0,0 km/h (0 Bft) NO 45 6,3 C 7,6 C 0,0 km/h (0 Bft)
20.08.2013 23:45 8,0 C 88 % 1028,6 hPa 0,0 l/m 0,0 km/h (0 Bft) NO 45 6,1 C 7,4 C 0,0 km/h (0 Bft)
20.08.2013 23:50 8,1 C 89 % 1028,6 hPa 0,0 l/m 0,0 km/h (0 Bft) N-NO 22 6,4 C 7,4 C 0,0 km/h (0 Bft)
20.08.2013 23:55 7,8 C 89 % 1028,6 hPa 0,0 l/m 0,0 km/h (0 Bft) N 360 6,1 C 7,4 C 0,0 km/h (0 Bft)
_ Min-Zeit 23:55 15:00 00:20 - 23:55 - - 23:55 23:55 23:55
Minimum _ 7,8 C 44 % 1025,1 hPa - 0,0 km/h (0 Bft) - - 6,1 C 7,4 C 0,0 km/h (0 Bft)
_ Max-Zeit 15:00 08:30 14:00 01:00 13:55 - - 10:00 16:35 17:30
Maximum _ 21,7 C 96 % 1030,1 hPa 0,7 l/m 6,6 km/h
S (2 Bft)
- - 16,9 C 24,0 C 13,7 km/h
W-NW (3 Bft)
Durchschnitt _ 13,9 C 80 % 1028,1 hPa #1,4 l/m 2,1 km/h (1 Bft) W-SW - 10,2 C 14,4 C 2,8 km/h (1 Bft)